COSMOS 996

导读

COSMOS 996属于苏联/独联体(CIS)的宇宙卫星系列,1978年3月28日08时发射升空。该系列卫星自1962年起持续发射,覆盖科学研究、航天技术试验、军事侦察等多元任务,苏联时期常将其他计划任务失败的探测器纳入该序列编号。作为冷战时期苏联航天活动的典型产物,它延续了宇宙系列保密命名传统,隐藏任务属性,服役期间完成既定空间任务,后续已退役成为空间碎片,是苏联航天发展的见证者。

基本信息
目录编号:
10744
目录名称:
COSMOS 996
国际标识:
1978-031A
轨道中心:
EARTH
卫星名称:
COSMOS 996
卫星全名:
--
卫星状态:
在轨 (已飞行17699 天)
发射日期:
1978-03-28 UTC
国别 :
俄罗斯(独联体) (CIS)
星等 :
--
该卫星已列入 空间交会检测服务 Space Conjunction Data Service (SCDS) ,当前飞行风险评估等级: 无高风险
轨道信息
数据来源 国际轨道数据 AOE轨道数据
星历时间 2026-09-10T20:11:49+0800
19小时前
查看轨道信息
2026-09-06T06:00:00+0800
5天前
查看轨道信息
半长轴 7353.602km 7353.601km
偏心率 0.0037017 0.0036882
轨道倾角 82.927° 82.926°
近地点辐角 181.450° 194.150°
升交点赤经 35.010° 38.429°
平近点角 245.395° 168.653°
近地点 948.244km 948.342km
远地点 1002.686km 1002.586km
周期 104.595分钟 104.595分钟
每日圈数 13.767421 13.767424
详细信息
使用方式:
暂无
2D轨道图
3D轨道图
轨道高度分析图
轨道倾角分析图
轨道综合分析图
查看轨道综合分析图
与全量物体交会距离演化趋势
与全量物体交会风险概率演化趋势